Location: Skalnate Pleso
(49.1889°N, 20.2450°E)
Time: 20:45:39
(UTC+01:00)

Cosmos 1833 Rocket - Pass Details

Date: 19 November 2019
Orbit: 832 x 840 km, 71.0° (Epoch: 06 December)

Event Time Altitude Azimuth Distance (km) Brightness Sun altitude
Exits shadow 05:09:11 18° 322° (NW) 1,947 4.2 -17.0°
Maximum altitude 05:09:19 18° 324° (NW) 1,947 4.2 -16.9°
Drops below altitude 10° 05:13:06 10° 6° (N) 2,458 5.1 -16.3°
Sets 05:16:23 0° 25° (NNE) 3,397 6.0 -15.8°
